Location: Privas
(44.7330°N, 4.6000°E)
Time: 08:21:53
(UTC+01:00)

ISS - Visible Passes

Search period start: 17 February 2020 00:00
Search period end: 27 February 2020 00:00
Orbit: 416 x 423 km, 51.6° (Epoch: 17 February)

Date Brightness Start Highest point End Pass type
(mag) Time Alt. Az. Time Alt. Az. Time Alt. Az.
20 Feb -0.8 06:41:40 10° S 06:43:43 15° SE 06:45:48 10° E visible
22 Feb -2.4 06:41:50 10° SSW 06:44:59 39° SE 06:48:11 10° ENE visible
23 Feb -1.6 05:54:58 11° S 05:57:30 24° SE 06:00:18 10° E visible
24 Feb -1.1 05:09:48 15° SE 05:10:02 15° SE 05:12:05 10° E visible
24 Feb -3.8 06:43:03 10° WSW 06:46:26 83° NNW 06:49:50 10° ENE visible
25 Feb -3.5 05:57:26 32° SW 05:58:48 63° SE 06:02:09 10° ENE visible
26 Feb -2.2 05:11:56 33° ESE 05:11:56 33° ESE 05:14:23 10° ENE visible
26 Feb -3.1 06:44:54 11° W 06:48:00 41° NNW 06:51:15 10° NE visible
